Weather History for LTBA - April, 2014

Change the Weather History Date:

Saturday, April 12, 2014

  Actual Average Record
Temperature  
Mean Temperature 50 °F -  
Max Temperature 56 °F 63 °F 80 °F (1998)
Min Temperature 45 °F 49 °F 39 °F (2011)
Degree Days  
Heating Degree Days 14    
Moisture  
Dew Point 45 °F    
Average Humidity 78    
Maximum Humidity 93    
Minimum Humidity 59    
Precipitation  
Precipitation 0.00 in - - ()
Sea Level Pressure  
Sea Level Pressure 30.04 in    
Wind  
Wind Speed 3 mph ()    
Max Wind Speed 10 mph    
Max Gust Speed -    
Visibility 5.8 miles    
Events Rain    
Averages and records for this station are not official NWS values.
T = Trace of Precipitation, MM = Missing Value Source: Averaged Metar Reports

Daily Weather History Graph

Daily Weather History Graph

Search for Another Location

Airport or City:

Trip Planner

Search our weather history database for the weather conditions in past years. The results will help you decide how hot, cold, wet, or windy it might be!

Date:

Astronomy

Apr. 12, 2014 Rise Set
Actual Time 6:30 AM EEST 7:41 PM EEST
Civil Twilight 6:02 AM EEST 8:09 PM EEST
Nautical Twilight 5:28 AM EEST 8:43 PM EEST
Astronomical Twilight 4:53 AM EEST 9:18 PM EEST
Moon 4:59 PM EEST (4/12) 4:48 AM EEST (4/12)
Length of Visible Light 14h 06m
Length of Day
13h 10m
Waxing Gibbous, 91% of the Moon is Illuminated
Apr 12
Waxing Gibbous
Apr 15
Full
Apr 22
Last Quarter
Apr 29
New
May 7
First Quarter

Hourly Weather History & Observations

Time (EEST) Temp. Windchill Dew Point Humidity Pressure Visibility Wind Dir Wind Speed Gust Speed Precip Events Conditions
12:00 AM 50 °F - 46 °F 81% 30.03 in 6 mi East 3.5 mph - -   Scattered Clouds
12:20 AM 50.0 °F - 46.4 °F 87% 30.01 in 6.2 mi Variable 1.2 mph - N/A   Partly Cloudy
12:50 AM 50.0 °F - 46.4 °F 87% 30.04 in 6.2 mi Variable 2.3 mph - N/A   Partly Cloudy
1:20 AM 51.8 °F - 46.4 °F 82% 30.04 in 6.2 mi Variable 3.5 mph - N/A   Partly Cloudy
1:50 AM 50.0 °F - 44.6 °F 82% 30.04 in 6.2 mi Variable 1.2 mph - N/A   Partly Cloudy
2:20 AM 50.0 °F - 44.6 °F 82% 30.01 in 6.2 mi East 3.5 mph - N/A   Partly Cloudy
2:50 AM 50.0 °F - 46.4 °F 87% 30.01 in 6.2 mi ENE 4.6 mph - N/A   Partly Cloudy
3:00 AM 50 °F - 45 °F 78% 30.01 in 6 mi ENE 4.6 mph - -   Scattered Clouds
3:20 AM 46.4 °F 44.3 °F 42.8 °F 87% 29.98 in 6.2 mi North 4.6 mph - N/A   Partly Cloudy
3:50 AM 46.4 °F 43.5 °F 42.8 °F 87% 29.98 in 6.2 mi North 5.8 mph - N/A   Partly Cloudy
4:20 AM 46.4 °F 45.2 °F 42.8 °F 87% 29.98 in 6.2 mi North 3.5 mph - N/A   Partly Cloudy
4:50 AM 46.4 °F 45.2 °F 42.8 °F 87% 29.98 in 6.2 mi North 3.5 mph - N/A   Partly Cloudy
5:20 AM 46.4 °F 44.3 °F 44.6 °F 93% 29.98 in 4.3 mi North 4.6 mph - N/A   Partly Cloudy
5:50 AM 48.2 °F - 42.8 °F 82% 29.98 in 6.2 mi NNE 3.5 mph - N/A   Partly Cloudy
6:00 AM 48 °F - 43 °F 77% 29.98 in 6 mi NNE 3.5 mph - -   Scattered Clouds
6:20 AM 48.2 °F - 44.6 °F 87% 29.98 in 5.0 mi North 4.6 mph - N/A Rain Light Rain Showers
6:50 AM 48.2 °F - 44.6 °F 87% 29.98 in 3.7 mi WSW 4.6 mph - N/A Rain Light Rain Showers
7:20 AM 48.2 °F - 44.6 °F 87% 30.01 in 3.7 mi NW 5.8 mph - N/A Rain Light Rain Showers
7:50 AM 48.2 °F - 44.6 °F 87% 30.01 in 5.0 mi Calm Calm - N/A Rain Light Rain Showers
8:20 AM 50.0 °F - 42.8 °F 76% 30.01 in 3.7 mi East 3.5 mph - N/A Rain Light Rain Showers
8:50 AM 50.0 °F - 44.6 °F 82% 30.01 in 4.3 mi Variable 3.5 mph - N/A Rain Light Rain Showers
9:00 AM 50 °F - 45 °F 75% 30.03 in 4 mi WNW 3.5 mph - - Rain Light Rain Showers
9:20 AM 50.0 °F - 46.4 °F 87% 30.01 in 4.3 mi NNW 8.1 mph - N/A Rain Light Rain Showers
9:50 AM 50.0 °F - 46.4 °F 87% 30.04 in 4.3 mi NNW 8.1 mph - N/A   Mostly Cloudy
10:20 AM 51.8 °F - 46.4 °F 82% 30.04 in 6.2 mi NNW 6.9 mph - N/A   Mostly Cloudy
10:50 AM 51.8 °F - 44.6 °F 76% 30.04 in 6.2 mi North 9.2 mph - N/A   Mostly Cloudy
11:20 AM 51.8 °F - 42.8 °F 71% 30.04 in 6.2 mi North 4.6 mph - N/A   Mostly Cloudy
11:50 AM 53.6 °F - 42.8 °F 67% 30.04 in 6.2 mi Variable 1.2 mph - N/A   Mostly Cloudy
12:00 PM 53 °F - 43 °F 59% 30.06 in 6 mi NNW 1.2 mph - -   Partly Cloudy
12:20 PM 53.6 °F - 46.4 °F 77% 30.04 in 6.2 mi West 5.8 mph - N/A   Mostly Cloudy
12:50 PM 53.6 °F - 42.8 °F 67% 30.06 in 6.2 mi Variable 1.2 mph - N/A   Mostly Cloudy
1:20 PM 53.6 °F - 42.8 °F 67% 30.06 in 6.2 mi Calm Calm - N/A   Mostly Cloudy
1:50 PM 53.6 °F - 42.8 °F 67% 30.06 in 6.2 mi Variable 1.2 mph - N/A   Mostly Cloudy
2:20 PM 55.4 °F - 42.8 °F 63% 30.04 in 6.2 mi Variable 1.2 mph - N/A   Mostly Cloudy
2:50 PM 55.4 °F - 42.8 °F 63% 30.04 in 6.2 mi Variable 1.2 mph - N/A   Mostly Cloudy
3:00 PM 55 °F - 45 °F 59% 30.06 in 6 mi SW 1.2 mph - -   Partly Cloudy
3:20 PM 55.4 °F - 44.6 °F 67% 30.04 in 6.2 mi Variable 2.3 mph - N/A   Mostly Cloudy
3:50 PM 55.4 °F - 44.6 °F 67% 30.04 in 6.2 mi SW 5.8 mph - N/A   Mostly Cloudy
4:20 PM 55.4 °F - 44.6 °F 67% 30.04 in 6.2 mi SW 9.2 mph - N/A   Mostly Cloudy
4:50 PM 53.6 °F - 44.6 °F 72% 30.04 in 6.2 mi SW 10.4 mph - N/A   Mostly Cloudy
5:20 PM 53.6 °F - 44.6 °F 72% 30.04 in 6.2 mi SW 9.2 mph - N/A   Mostly Cloudy
5:50 PM 53.6 °F - 44.6 °F 72% 30.04 in 6.2 mi SW 9.2 mph - N/A   Mostly Cloudy
6:00 PM 53 °F - 45 °F 65% 30.06 in 6 mi SW 9.2 mph - -   Partly Cloudy
6:20 PM 51.8 °F - 44.6 °F 76% 30.06 in 6.2 mi SW 9.2 mph - N/A   Mostly Cloudy
6:50 PM 51.8 °F - 46.4 °F 82% 30.04 in 6.2 mi WSW 6.9 mph - N/A   Scattered Clouds
7:20 PM 51.8 °F - 44.6 °F 76% 30.06 in 6.2 mi WSW 4.6 mph - N/A   Scattered Clouds
7:50 PM 51.8 °F - 44.6 °F 76% 30.06 in 6.2 mi SW 6.9 mph - N/A   Scattered Clouds
8:20 PM 50.0 °F - 44.6 °F 82% 30.06 in 6.2 mi WSW 5.8 mph - N/A   Partly Cloudy
8:50 PM 50.0 °F - 44.6 °F 82% 30.06 in - Variable 1.2 mph - N/A   Clear
9:00 PM 50 °F - 45 °F 76% 30.09 in 6 mi SW 1.2 mph - -  
9:20 PM 50.0 °F - 46.4 °F 87% 30.09 in - Calm Calm - N/A   Clear
9:50 PM 50.0 °F - 44.6 °F 82% 30.09 in - Calm Calm - N/A   Clear
10:20 PM 50.0 °F - 44.6 °F 82% 30.09 in - Calm Calm - N/A   Clear
10:50 PM 50.0 °F - 44.6 °F 82% 30.09 in - Calm Calm - N/A   Clear
11:20 PM 50.0 °F - 44.6 °F 82% 30.09 in - Calm Calm - N/A   Clear
11:50 PM 50.0 °F - 44.6 °F 82% 30.09 in - Calm Calm - N/A   Clear